| time (UTC) | temp F | wind direction | speed MPH | gust MPH | rain 1hr in | rain 24hr in | rain mn in | humidity % | barometer mb |
| 20260503203847 | 61 | 230 | 8.0 | 9.0 | 0.00 | 0.00 | 0.00 | 59 | 4298.2 |
| 20260503203344 | 61 | 224 | 7.0 | 8.0 | 0.00 | 0.00 | 0.00 | 60 | 4298.2 |
| 20260503202841 | 61 | 217 | 6.0 | 8.0 | 0.00 | 0.00 | 0.00 | 59 | 4298.2 |
| 20260503202339 | 62 | 228 | 6.0 | 8.0 | 0.00 | 0.00 | 0.00 | 59 | 4298.1 |
| 20260503201837 | 61 | 245 | 4.0 | 5.0 | 0.00 | 0.00 | 0.00 | 61 | 4298.2 |
| 20260503201333 | 60 | 199 | 4.0 | 6.0 | 0.00 | 0.00 | 0.00 | 59 | 4297.7 |
| 20260503200832 | 61 | 199 | 7.0 | 8.0 | 0.00 | 0.00 | 0.00 | 60 | 4298.3 |
| 20260503200327 | 61 | 202 | 11.0 | 13.0 | 0.00 | 0.00 | 0.00 | 60 | 4298.4 |
| 20260503195825 | 60 | 207 | 14.0 | 16.0 | 0.00 | 0.00 | 0.00 | 63 | 4298.4 |
| 20260503195321 | 60 | 252 | 9.0 | 10.0 | 0.00 | 0.00 | 0.00 | 62 | 4298.8 |
| 20260503194819 | 60 | 250 | 9.0 | 13.0 | 0.00 | 0.00 | 0.00 | 64 | 4298.5 |
| 20260503194314 | 59 | 227 | 5.0 | 6.0 | 0.00 | 0.00 | 0.00 | 65 | 4298.7 |
| 20260503193810 | 59 | 265 | 3.0 | 6.0 | 0.00 | 0.00 | 0.00 | 66 | 4298.9 |
| 20260503193307 | 60 | 272 | 5.0 | 7.0 | 0.00 | 0.00 | 0.00 | 63 | 4298.7 |
| 20260503192802 | 60 | 259 | 5.0 | 7.0 | 0.00 | 0.00 | 0.00 | 64 | 4298.8 |
| 20260503192258 | 60 | 208 | 9.0 | 10.0 | 0.00 | 0.00 | 0.00 | 63 | 4298.8 |
| 20260503191755 | 60 | 280 | 3.0 | 3.0 | 0.00 | 0.00 | 0.00 | 66 | 4298.7 |
| 20260503191252 | 60 | 294 | 4.0 | 6.0 | 0.00 | 0.00 | 0.00 | 64 | 4299.1 |
| 20260503190748 | 59 | 237 | 6.0 | 7.0 | 0.00 | 0.00 | 0.00 | 64 | 4298.6 |
| 20260503190245 | 59 | 215 | 7.0 | 9.0 | 0.00 | 0.00 | 0.00 | 64 | 4298.9 |
| 20260503185743 | 58 | 209 | 7.0 | 8.0 | 0.00 | 0.00 | 0.00 | 65 | 4299.0 |
| 20260503185238 | 58 | 227 | 10.0 | 11.0 | 0.00 | 0.00 | 0.00 | 66 | 4299.0 |
| 20260503184733 | 58 | 239 | 7.0 | 9.0 | 0.00 | 0.00 | 0.00 | 66 | 4299.1 |
| 20260503184229 | 59 | 234 | 8.0 | 10.0 | 0.00 | 0.00 | 0.00 | 66 | 4299.0 |
| 20260503183726 | 59 | 248 | 5.0 | 8.0 | 0.00 | 0.00 | 0.00 | 65 | 4299.0 |
| 20260503183223 | 58 | 245 | 5.0 | 7.0 | 0.00 | 0.00 | 0.00 | 66 | 4299.1 |
| 20260503182721 | 59 | 236 | 5.0 | 6.0 | 0.00 | 0.00 | 0.00 | 65 | 4299.0 |
| 20260503182220 | 59 | 254 | 7.0 | 9.0 | 0.00 | 0.00 | 0.00 | 67 | 4299.2 |
| 20260503181715 | 57 | 262 | 4.0 | 6.0 | 0.00 | 0.00 | 0.00 | 70 | 4298.9 |
| 20260503181213 | 58 | 258 | 8.0 | 10.0 | 0.00 | 0.00 | 0.00 | 69 | 4299.0 |
| 20260503180709 | 58 | 229 | 11.0 | 14.0 | 0.00 | 0.00 | 0.00 | 70 | 4299.2 |
| 20260503180208 | 57 | 267 | 11.0 | 13.0 | 0.00 | 0.00 | 0.00 | 70 | 4299.4 |
| 20260503175704 | 57 | 285 | 13.0 | 17.0 | 0.00 | 0.00 | 0.00 | 71 | 4299.3 |
| 20260503175202 | 56 | 212 | 5.0 | 6.0 | 0.00 | 0.00 | 0.00 | 74 | 4299.4 |
| 20260503174658 | 55 | 268 | 8.0 | 13.0 | 0.00 | 0.00 | 0.00 | 75 | 4299.3 |
| 20260503174155 | 55 | 221 | 7.0 | 8.0 | 0.00 | 0.00 | 0.00 | 78 | 4299.3 |
| 20260503173651 | 54 | 243 | 5.0 | 6.0 | 0.00 | 0.00 | 0.00 | 80 | 4299.3 |
| 20260503173147 | 54 | 211 | 8.0 | 9.0 | 0.00 | 0.00 | 0.00 | 82 | 4299.4 |
| 20260503172644 | 53 | 240 | 7.0 | 9.0 | 0.00 | 0.00 | 0.00 | 82 | 4299.3 |
| 20260503172141 | 53 | 229 | 7.0 | 9.0 | 0.00 | 0.00 | 0.00 | 85 | 4299.1 |
| 20260503171637 | 53 | 224 | 5.0 | 6.0 | 0.00 | 0.00 | 0.00 | 86 | 4299.0 |
| 20260503171135 | 53 | 225 | 7.0 | 8.0 | 0.00 | 0.00 | 0.00 | 87 | 4299.1 |
| 20260503170632 | 53 | 244 | 7.0 | 9.0 | 0.00 | 0.00 | 0.00 | 88 | 4299.0 |
| 20260503170129 | 53 | 208 | 8.0 | 9.0 | 0.00 | 0.00 | 0.00 | 88 | 4299.0 |
| 20260503150520 | 53 | 228 | 2.0 | 2.0 | 0.00 | 0.00 | 0.00 | 84 | 4298.1 |
| 20260503131413 | 50 | 222 | 0.0 | 0.0 | 0.00 | 0.00 | 0.00 | 89 | 4297.4 |
| 20260503130910 | 50 | 223 | 0.0 | 1.0 | 0.00 | 0.00 | 0.00 | 89 | 4297.4 |
| 20260503130408 | 50 | 222 | 1.0 | 2.0 | 0.00 | 0.00 | 0.00 | 88 | 4297.2 |
| 20260503110811 | 51 | 221 | 5.0 | 6.0 | 0.00 | 0.00 | 0.00 | 85 | 4296.8 |
| 20260503110308 | 51 | 223 | 3.0 | 3.0 | 0.00 | 0.00 | 0.00 | 86 | 4296.9 |
| 20260503100235 | 51 | 223 | 2.0 | 2.0 | 0.00 | 0.00 | 0.00 | 86 | 4296.8 |
| 20260503090154 | 52 | 219 | 4.0 | 5.0 | 0.00 | 0.00 | 0.00 | 88 | 4296.9 |
| 20260503081624 | 52 | 231 | 4.0 | 5.0 | 0.00 | 0.00 | 0.00 | 89 | 4297.5 |
| 20260503081121 | 52 | 269 | 2.0 | 3.0 | 0.00 | 0.00 | 0.00 | 89 | 4297.4 |
| 20260503080617 | 52 | 240 | 4.0 | 6.0 | 0.00 | 0.00 | 0.00 | 89 | 4297.4 |
| 20260503080114 | 52 | 245 | 2.0 | 2.0 | 0.00 | 0.00 | 0.00 | 89 | 4297.3 |
| 20260503072550 | 52 | 265 | 5.0 | 6.0 | 0.00 | 0.00 | 0.00 | 90 | 4297.1 |
| 20260503072048 | 52 | 209 | 3.0 | 5.0 | 0.00 | 0.00 | 0.00 | 90 | 4297.1 |
| 20260503071544 | 52 | 204 | 4.0 | 5.0 | 0.00 | 0.00 | 0.00 | 90 | 4297.2 |
| 20260503071041 | 52 | 221 | 7.0 | 8.0 | 0.00 | 0.00 | 0.00 | 90 | 4297.0 |
| 20260503070537 | 52 | 234 | 4.0 | 6.0 | 0.00 | 0.00 | 0.00 | 90 | 4297.1 |
| 20260503054951 | 51 | 267 | 0.0 | 1.0 | 0.00 | 0.00 | 0.00 | 94 | 4296.7 |
| 20260503054447 | 51 | 292 | 2.0 | 2.0 | 0.00 | 0.00 | 0.00 | 94 | 4296.6 |
| 20260503053945 | 51 | 252 | 0.0 | 0.0 | 0.00 | 0.00 | 0.00 | 94 | 4296.8 |
| 20260503053443 | 51 | 258 | 0.0 | 0.0 | 0.00 | 0.00 | 0.00 | 95 | 4296.4 |
| 20260503052939 | 51 | 283 | 0.0 | 0.0 | 0.00 | 0.00 | 0.00 | 95 | 4296.3 |
| 20260503052437 | 50 | 301 | 0.0 | 0.0 | 0.00 | 0.00 | 0.00 | 95 | 4296.6 |
| 20260503051932 | 50 | 282 | 0.0 | 0.0 | 0.00 | 0.00 | 0.00 | 94 | 4296.5 |
| 20260503051429 | 50 | 273 | 0.0 | 0.0 | 0.00 | 0.00 | 0.00 | 94 | 4296.6 |
| 20260503050926 | 50 | 276 | 0.0 | 0.0 | 0.00 | 0.00 | 0.00 | 94 | 4296.7 |
| 20260503050422 | 50 | 269 | 0.0 | 0.0 | 0.00 | 0.00 | 0.00 | 94 | 4296.7 |
| 20260503045920 | 50 | 303 | 0.0 | 0.0 | 0.00 | 0.00 | 0.00 | 94 | 4296.8 |
| 20260503045417 | 50 | 257 | 0.0 | 0.0 | 0.00 | 0.00 | 0.00 | 94 | 4296.5 |
| 20260503044914 | 50 | 287 | 0.0 | 0.0 | 0.00 | 0.00 | 0.00 | 93 | 4296.4 |
| 20260503044410 | 50 | 274 | 0.0 | 0.0 | 0.00 | 0.00 | 0.00 | 93 | 4296.4 |
| 20260503043908 | 51 | 280 | 0.0 | 0.0 | 0.00 | 0.00 | 0.00 | 93 | 4296.5 |
| 20260503043404 | 50 | 295 | 0.0 | 0.0 | 0.00 | 0.00 | 0.00 | 93 | 4296.3 |
| 20260503042901 | 50 | 346 | 0.0 | 0.0 | 0.00 | 0.00 | 0.00 | 92 | 4296.1 |
| 20260503042357 | 51 | 311 | 0.0 | 0.0 | 0.00 | 0.00 | 0.00 | 92 | 4296.1 |
| 20260503041853 | 51 | 307 | 1.0 | 2.0 | 0.00 | 0.00 | 0.00 | 92 | 4296.2 |
| 20260503041351 | 51 | 293 | 0.0 | 1.0 | 0.00 | 0.00 | 0.00 | 91 | 4295.9 |
| 20260503040848 | 51 | 260 | 0.0 | 0.0 | 0.00 | 0.00 | 0.00 | 91 | 4295.8 |
| 20260503040346 | 51 | 269 | 0.0 | 0.0 | 0.00 | 0.00 | 0.00 | 91 | 4295.8 |
| 20260503035842 | 52 | 270 | 0.0 | 0.0 | 0.00 | 0.00 | 0.00 | 91 | 4296.0 |
| 20260503035339 | 52 | 288 | 1.0 | 3.0 | 0.00 | 0.00 | 0.00 | 90 | 4296.1 |
| 20260503034837 | 52 | 232 | 0.0 | 0.0 | 0.00 | 0.00 | 0.00 | 90 | 4296.0 |
| 20260503034334 | 52 | 214 | 5.0 | 6.0 | 0.00 | 0.00 | 0.00 | 90 | 4296.1 |
| 20260503033831 | 52 | 232 | 2.0 | 2.0 | 0.00 | 0.00 | 0.00 | 90 | 4296.1 |
| 20260503033329 | 53 | 243 | 0.0 | 0.0 | 0.00 | 0.00 | 0.00 | 89 | 4296.1 |
| 20260503032826 | 53 | 226 | 1.0 | 2.0 | 0.00 | 0.00 | 0.00 | 88 | 4296.0 |
| 20260503032325 | 53 | 263 | 2.0 | 3.0 | 0.00 | 0.00 | 0.00 | 88 | 4295.9 |
| 20260503031822 | 53 | 296 | 2.0 | 3.0 | 0.00 | 0.00 | 0.00 | 87 | 4295.9 |
| 20260503031320 | 53 | 271 | 3.0 | 5.0 | 0.00 | 0.00 | 0.00 | 86 | 4295.5 |
| 20260503030816 | 54 | 261 | 2.0 | 5.0 | 0.00 | 0.00 | 0.00 | 86 | 4295.9 |
| 20260503030313 | 54 | 317 | 4.0 | 6.0 | 0.00 | 0.00 | 0.00 | 85 | 4295.6 |
| 20260503025809 | 55 | 281 | 5.0 | 5.0 | 0.00 | 0.00 | 0.00 | 84 | 4295.5 |
| 20260503025307 | 55 | 250 | 1.0 | 2.0 | 0.00 | 0.00 | 0.00 | 83 | 4295.3 |
| 20260503024804 | 56 | 288 | 4.0 | 6.0 | 0.00 | 0.00 | 0.00 | 82 | 4295.1 |
| 20260503024300 | 56 | 274 | 3.0 | 3.0 | 0.00 | 0.00 | 0.00 | 81 | 4295.4 |
| 20260503023758 | 57 | 284 | 6.0 | 8.0 | 0.00 | 0.00 | 0.00 | 80 | 4295.4 |
| 20260503023255 | 57 | 307 | 4.0 | 5.0 | 0.00 | 0.00 | 0.00 | 78 | 4295.5 |
| 20260503022751 | 58 | 295 | 4.0 | 5.0 | 0.00 | 0.00 | 0.00 | 77 | 4295.5 |
| 20260503022251 | 59 | 294 | 2.0 | 3.0 | 0.00 | 0.00 | 0.00 | 76 | 4295.3 |
| 20260503021748 | 60 | 269 | 3.0 | 5.0 | 0.00 | 0.00 | 0.00 | 74 | 4295.3 |
| 20260503021243 | 60 | 264 | 2.0 | 3.0 | 0.00 | 0.00 | 0.00 | 73 | 4295.3 |
| 20260503020742 | 60 | 290 | 4.0 | 6.0 | 0.00 | 0.00 | 0.00 | 73 | 4295.3 |
| 20260503020239 | 61 | 316 | 3.0 | 5.0 | 0.00 | 0.00 | 0.00 | 72 | 4295.2 |
| 20260503015735 | 62 | 280 | 3.0 | 5.0 | 0.00 | 0.00 | 0.00 | 71 | 4295.2 |
| 20260503015232 | 62 | 317 | 4.0 | 6.0 | 0.00 | 0.00 | 0.00 | 69 | 4295.1 |
| 20260503014728 | 62 | 280 | 4.0 | 6.0 | 0.00 | 0.00 | 0.00 | 69 | 4295.1 |
| 20260503014226 | 63 | 302 | 6.0 | 9.0 | 0.00 | 0.00 | 0.00 | 69 | 4295.4 |
| 20260503013723 | 63 | 294 | 3.0 | 3.0 | 0.00 | 0.00 | 0.00 | 67 | 4295.0 |
| 20260503013221 | 64 | 270 | 4.0 | 6.0 | 0.00 | 0.00 | 0.00 | 66 | 4295.3 |
| 20260503012718 | 65 | 252 | 6.0 | 7.0 | 0.00 | 0.00 | 0.00 | 65 | 4295.1 |
| 20260503012215 | 67 | 293 | 5.0 | 8.0 | 0.00 | 0.00 | 0.00 | 63 | 4295.1 |
| 20260503011711 | 67 | 265 | 2.0 | 2.0 | 0.00 | 0.00 | 0.00 | 61 | 4295.1 |
| 20260503011209 | 68 | 279 | 2.0 | 2.0 | 0.00 | 0.00 | 0.00 | 63 | 4295.3 |
| 20260503010705 | 68 | 304 | 2.0 | 3.0 | 0.00 | 0.00 | 0.00 | 60 | 4295.1 |
| 20260503010202 | 68 | 258 | 2.0 | 3.0 | 0.00 | 0.00 | 0.00 | 61 | 4295.0 |
| 20260503005659 | 69 | 262 | 4.0 | 7.0 | 0.00 | 0.00 | 0.00 | 60 | 4295.1 |
| 20260503005156 | 70 | 260 | 2.0 | 3.0 | 0.00 | 0.00 | 0.00 | 58 | 4295.0 |
| 20260503004652 | 70 | 215 | 2.0 | 2.0 | 0.00 | 0.00 | 0.00 | 59 | 4295.2 |
| 20260503004151 | 71 | 212 | 2.0 | 2.0 | 0.00 | 0.00 | 0.00 | 57 | 4295.0 |
| 20260503003648 | 70 | 252 | 3.0 | 6.0 | 0.00 | 0.00 | 0.00 | 58 | 4294.9 |
| 20260503003145 | 71 | 250 | 3.0 | 3.0 | 0.00 | 0.00 | 0.00 | 57 | 4295.2 |
| 20260503002641 | 71 | 267 | 3.0 | 5.0 | 0.00 | 0.00 | 0.00 | 56 | 4295.2 |
| 20260503002138 | 71 | 269 | 4.0 | 6.0 | 0.00 | 0.00 | 0.00 | 56 | 4295.1 |
| 20260503001634 | 71 | 217 | 3.0 | 3.0 | 0.00 | 0.00 | 0.00 | 56 | 4295.0 |
| 20260503001131 | 71 | 203 | 3.0 | 5.0 | 0.00 | 0.00 | 0.00 | 56 | 4294.9 |
| 20260503000629 | 71 | 255 | 6.0 | 7.0 | 0.00 | 0.00 | 0.00 | 57 | 4295.1 |
| 20260503000126 | 72 | 247 | 3.0 | 5.0 | 0.00 | 0.00 | 0.00 | 56 | 4294.9 |
| 20260502235622 | 72 | 266 | 3.0 | 3.0 | 0.00 | 0.00 | 0.00 | 55 | 4294.7 |
| 20260502235121 | 71 | 238 | 6.0 | 7.0 | 0.00 | 0.00 | 0.00 | 57 | 4294.9 |
| 20260502234616 | 72 | 291 | 3.0 | 6.0 | 0.00 | 0.00 | 0.00 | 55 | 4295.0 |
| 20260502234114 | 72 | 231 | 4.0 | 5.0 | 0.00 | 0.00 | 0.00 | 54 | 4294.9 |
| 20260502233609 | 73 | 260 | 3.0 | 3.0 | 0.00 | 0.00 | 0.00 | 55 | 4295.0 |
| 20260502233107 | 73 | 284 | 4.0 | 7.0 | 0.00 | 0.00 | 0.00 | 54 | 4295.2 |
| 20260502232602 | 71 | 294 | 2.0 | 3.0 | 0.00 | 0.00 | 0.00 | 55 | 4295.0 |
| 20260502232100 | 71 | 220 | 4.0 | 6.0 | 0.00 | 0.00 | 0.00 | 56 | 4295.1 |
| 20260502231556 | 71 | 260 | 3.0 | 6.0 | 0.00 | 0.00 | 0.00 | 57 | 4295.1 |
| 20260502231055 | 71 | 245 | 6.0 | 7.0 | 0.00 | 0.00 | 0.00 | 56 | 4295.3 |
| 20260502230553 | 70 | 186 | 5.0 | 5.0 | 0.00 | 0.00 | 0.00 | 54 | 4295.5 |
| 20260502230051 | 70 | 209 | 4.0 | 6.0 | 0.00 | 0.00 | 0.00 | 58 | 4295.4 |
| 20260502225546 | 70 | 206 | 7.0 | 8.0 | 0.00 | 0.00 | 0.00 | 59 | 4295.7 |
| 20260502225043 | 71 | 228 | 9.0 | 10.0 | 0.00 | 0.00 | 0.00 | 57 | 4295.5 |
| 20260502224539 | 72 | 209 | 6.0 | 7.0 | 0.00 | 0.00 | 0.00 | 55 | 4295.7 |
| 20260502224037 | 70 | 225 | 3.0 | 6.0 | 0.00 | 0.00 | 0.00 | 54 | 4295.7 |
| 20260502223534 | 72 | 221 | 12.0 | 15.0 | 0.00 | 0.00 | 0.00 | 55 | 4295.9 |
| 20260502223033 | 73 | 278 | 6.0 | 7.0 | 0.00 | 0.00 | 0.00 | 52 | 4295.9 |
| 20260502222529 | 72 | 222 | 6.0 | 8.0 | 0.00 | 0.00 | 0.00 | 54 | 4295.9 |
| 20260502222026 | 73 | 273 | 4.0 | 5.0 | 0.00 | 0.00 | 0.00 | 55 | 4296.1 |
| 20260502221521 | 73 | 287 | 2.0 | 3.0 | 0.00 | 0.00 | 0.00 | 57 | 4295.9 |
| 20260502221019 | 73 | 260 | 4.0 | 5.0 | 0.00 | 0.00 | 0.00 | 56 | 4296.0 |
| 20260502220514 | 72 | 246 | 3.0 | 5.0 | 0.00 | 0.00 | 0.00 | 57 | 4296.2 |
| 20260502220011 | 71 | 259 | 3.0 | 5.0 | 0.00 | 0.00 | 0.00 | 58 | 4296.4 |
| 20260502215509 | 73 | 268 | 10.0 | 11.0 | 0.00 | 0.00 | 0.00 | 58 | 4296.3 |
| 20260502215005 | 73 | 217 | 5.0 | 6.0 | 0.00 | 0.00 | 0.00 | 57 | 4296.2 |
| 20260502214502 | 72 | 269 | 2.0 | 3.0 | 0.00 | 0.00 | 0.00 | 59 | 4296.4 |
| 20260502214000 | 71 | 173 | 5.0 | 6.0 | 0.00 | 0.00 | 0.00 | 60 | 4296.5 |
| 20260502213456 | 71 | 199 | 9.0 | 11.0 | 0.00 | 0.00 | 0.00 | 61 | 4296.6 |
| 20260502212954 | 73 | 228 | 3.0 | 5.0 | 0.00 | 0.00 | 0.00 | 59 | 4296.5 |
| 20260502212453 | 73 | 222 | 9.0 | 11.0 | 0.00 | 0.00 | 0.00 | 57 | 4296.6 |
| 20260502211950 | 72 | 264 | 3.0 | 3.0 | 0.00 | 0.00 | 0.00 | 59 | 4297.0 |
| 20260502211445 | 71 | 289 | 3.0 | 3.0 | 0.00 | 0.00 | 0.00 | 61 | 4297.0 |
| 20260502210943 | 72 | 290 | 5.0 | 8.0 | 0.00 | 0.00 | 0.00 | 59 | 4296.9 |
| 20260502210440 | 71 | 271 | 5.0 | 7.0 | 0.00 | 0.00 | 0.00 | 60 | 4297.0 |
| 20260502205937 | 71 | 266 | 7.0 | 10.0 | 0.00 | 0.00 | 0.00 | 62 | 4297.1 |
| 20260502205433 | 71 | 293 | 4.0 | 6.0 | 0.00 | 0.00 | 0.00 | 61 | 4296.8 |
| 20260502204931 | 70 | 324 | 2.0 | 5.0 | 0.00 | 0.00 | 0.00 | 64 | 4297.1 |
| 20260502204427 | 69 | 274 | 3.0 | 5.0 | 0.00 | 0.00 | 0.00 | 64 | 4297.3 |